FLOCK 3P-7 (41970 NORAD) Tracking and Keplerian Element Data

This shows tracking and keplerian element data for the satellite.

Feedback or suggestion? Click here.




ElementValue
Catalog41970
NameFLOCK 3P-7
Epoch Orbit5530
Epoch Day45.82381081
Epoch Year2018
RAAN111.3641
Inclination97.4657
Eccentricity0.0009859
Argument of Perigee69.2397
Mean Anonmoly290.9895
Mean Motion15.23902758
Decay Rate1.554E-05
L11 41970U 17008Y 18045.82381081 .00001554 00000-0 67251-4 0 9996
L22 41970 97.4657 111.3641 0009859 69.2397 290.9895 15.23902758 55302

Live tracking and technical data element details for FLOCK 3P-7 (NORAD 41970). FLOCK 3P-7 can be tracked NOW for your location showing map with azimuth and elevation plus other details from your city location.

Track the satellite on the map from your city or location and see movement details for azimuth, elevation, latitude, longitude, range, height, and movement on the map or in text.







IsCatalogInMostPopularTable: catalog: 41970, numindb: 95
Update: records affected: 1



GetName: 41970 FLOCK 3P-7

Hit Count: updated at: Tue, 25 Sep 2018 14:38:44 GMT